period_start,C,m1,H,J0,J1,J2,J3,J4,J5,JA,JB,JC,JD,JJ,JK,JN,#
2015-09-15 00:04:49,0.00,2.29,0.00,23.21,28.15,30.83,14.61,50.92,1019.01,2033.99,2520.97,2682.00,2848.82,600.05,597.01,52.35,0000 0000 0000 0000 000000
2015-09-15 00:09:50,0.00,2.29,0.00,23.23,28.15,30.89,14.62,50.92,1019.06,2033.99,2520.89,2682.00,2848.74,600.16,597.14,52.40,0000 0000 0000 0000 000000
2015-09-15 00:14:51,0.02,2.29,0.00,23.06,28.15,30.85,14.66,50.90,1019.06,2033.99,2520.31,2682.00,2848.30,599.93,597.32,52.45,0000 0000 0000 0000 000000
2015-09-15 00:19:53,-0.01,2.29,0.00,23.14,28.14,30.81,14.55,50.93,1019.07,2033.99,2520.34,2681.99,2848.22,599.95,597.14,52.50,0000 0000 0000 0000 000000
2015-09-15 00:24:54,0.00,2.29,0.00,23.22,28.13,30.86,14.65,50.92,1019.12,2034.00,2520.36,2681.99,2848.30,599.93,596.99,52.55,0000 0000 0000 0000 000000
2015-09-15 00:29:55,0.01,2.29,0.00,23.10,28.12,30.85,14.63,50.99,1019.32,2034.00,2520.15,2681.99,2848.16,599.97,597.38,52.60,0000 0000 0000 0000 000000
2015-09-15 00:34:56,0.00,2.29,0.00,23.15,28.12,30.81,14.63,50.76,1019.50,2034.00,2520.01,2681.99,2848.05,600.08,597.50,52.65,0000 0000 0000 0000 000000
2015-09-15 00:39:58,0.00,2.29,0.00,23.25,28.12,30.84,14.62,50.74,1019.53,2034.01,2520.00,2681.99,2848.03,600.13,597.28,52.70,0000 0000 0000 0000 000000
2015-09-15 00:44:59,0.02,2.29,0.00,23.13,28.12,30.81,14.60,50.88,1019.55,2034.00,2519.76,2681.85,2848.02,599.97,597.44,52.75,0000 0000 0000 0000 000000
2015-09-15 00:50:00,0.10,2.30,0.00,23.21,28.12,30.80,14.58,50.86,1019.55,2034.01,2517.62,2680.99,2847.19,599.99,597.33,52.80,0000 0000 0000 0000 000000
2015-09-15 00:55:01,0.06,2.30,0.00,23.20,28.12,30.83,14.58,50.80,1019.55,2034.02,2516.14,2680.17,2846.71,599.87,597.21,52.85,0000 0000 0000 0000 000000
2015-09-15 01:00:03,0.00,2.30,0.00,23.05,28.12,30.80,14.67,51.01,1019.57,2034.00,2516.00,2680.06,2846.50,600.18,597.80,52.90,0000 0000 0000 0000 000000
2015-09-15 01:05:04,-0.01,2.30,0.00,23.19,28.12,30.79,14.63,51.17,1019.70,2034.00,2516.00,2680.19,2846.66,599.86,597.37,52.95,0000 0000 0000 0000 000000
2015-09-15 01:10:05,0.01,2.30,0.00,23.23,28.12,30.87,14.62,51.11,1019.88,2034.00,2516.01,2680.08,2846.61,600.07,597.51,53.00,0000 0000 0000 0000 000000
2015-09-15 01:15:06,0.02,2.30,0.00,23.14,28.12,30.80,14.58,51.03,1019.90,2034.00,2515.75,2680.01,2846.16,599.74,597.32,53.05,0000 0000 0000 0000 000000
2015-09-15 01:20:07,0.01,2.30,0.00,23.24,28.12,30.80,14.61,51.03,1019.97,2034.00,2515.11,2679.98,2845.98,599.84,597.42,53.10,0000 0000 0000 0000 000000
2015-09-15 01:25:08,0.00,2.30,0.00,23.23,28.12,30.83,14.62,50.88,1020.00,2034.00,2515.02,2679.97,2845.97,599.99,597.44,53.15,0000 0000 0000 0000 000000
2015-09-15 01:30:09,0.00,2.31,0.00,23.09,28.12,30.79,14.60,50.98,1020.02,2034.00,2515.01,2679.95,2845.94,600.09,597.86,53.20,0000 0000 0000 0000 000000
2015-09-15 01:35:11,0.00,2.31,0.00,23.20,28.12,30.78,14.63,51.06,1020.03,2034.00,2515.01,2679.96,2845.97,600.05,597.73,53.26,0000 0000 0000 0000 000000
2015-09-15 01:40:12,0.07,2.31,0.00,23.22,28.12,30.84,14.67,51.03,1020.03,2034.00,2514.22,2679.44,2845.40,600.10,597.70,53.31,0000 0000 0000 0000 000000
2015-09-15 01:45:13,0.02,2.31,0.00,23.11,28.11,30.79,14.60,51.04,1020.04,2034.00,2512.95,2678.99,2844.94,600.00,597.77,53.36,0000 0000 0000 0000 000000
2015-09-15 01:50:14,0.01,2.31,0.00,23.22,28.11,30.79,14.65,51.04,1020.05,2034.00,2512.54,2678.95,2844.80,600.10,597.67,53.41,0000 0000 0000 0000 000000
2015-09-15 01:55:16,0.07,2.31,0.00,23.18,28.11,30.83,14.55,51.02,1020.08,2034.00,2511.39,2678.18,2844.14,599.78,597.45,53.46,0000 0000 0000 0000 000000
2015-09-15 02:00:17,0.00,2.32,0.00,23.07,28.10,30.77,14.62,50.94,1020.19,2034.00,2510.95,2677.99,2843.94,599.90,597.89,53.51,0000 0000 0000 0000 000000
2015-09-15 02:05:19,0.08,2.32,0.00,23.20,28.10,30.77,14.68,51.02,1020.43,2034.00,2509.77,2677.31,2843.10,600.18,598.03,53.56,0000 0000 0000 0000 000000
2015-09-15 02:10:20,0.01,2.32,0.00,23.20,28.10,30.81,14.65,50.91,1020.50,2034.00,2509.10,2677.06,2843.00,599.94,597.94,53.61,0000 0000 0000 0000 000000
2015-09-15 02:15:21,0.00,2.32,0.00,23.12,28.10,30.77,14.53,51.07,1020.52,2034.00,2509.03,2677.04,2842.99,599.74,597.84,53.66,0000 0000 0000 0000 000000
2015-09-15 02:20:23,0.00,2.32,0.00,23.22,28.10,30.80,14.66,51.17,1020.52,2034.00,2509.00,2677.01,2842.98,599.97,597.90,53.71,0000 0000 0000 0000 000000
2015-09-15 02:25:24,0.00,2.32,0.00,23.18,28.10,30.78,14.63,51.10,1020.52,2034.00,2509.00,2677.01,2842.98,600.10,597.99,53.76,0000 0000 0000 0000 000000
2015-09-15 02:30:25,0.00,2.32,0.00,23.10,28.10,30.76,14.69,51.28,1020.52,2034.00,2508.99,2677.00,2842.94,600.08,598.20,53.81,0000 0000 0000 0000 000000
2015-09-15 02:35:27,0.00,2.32,0.00,23.22,28.10,30.79,14.66,51.20,1020.53,2034.00,2508.95,2677.00,2842.86,599.82,597.64,53.86,0000 0000 0000 0000 000000
2015-09-15 02:40:28,0.02,2.32,0.00,23.11,28.10,30.81,14.64,51.06,1020.53,2034.00,2508.56,2677.00,2842.50,599.93,598.03,53.91,0000 0000 0000 0000 000000
2015-09-15 02:45:30,0.01,2.32,0.00,23.12,28.10,30.76,14.66,51.13,1020.53,2034.00,2508.11,2677.00,2842.12,600.17,598.36,53.96,0000 0000 0000 0000 000000
2015-09-15 02:50:31,-0.00,2.32,0.00,23.20,28.10,30.80,14.66,51.07,1020.54,2034.00,2508.15,2677.00,2842.10,600.05,597.90,54.01,0000 0000 0000 0000 000000
2015-09-15 02:55:32,0.00,2.32,0.00,23.11,28.10,30.80,14.63,51.21,1020.59,2034.00,2508.05,2677.00,2842.07,599.93,598.13,54.06,0000 0000 0000 0000 000000
2015-09-15 03:00:33,0.00,2.32,0.00,23.06,28.10,30.75,14.69,51.22,1020.71,2034.00,2508.01,2677.00,2842.06,600.22,598.45,54.11,0000 0000 0000 0000 000000
2015-09-15 03:05:35,-0.00,2.32,0.00,23.19,28.10,30.79,14.58,51.05,1020.85,2034.00,2508.01,2677.00,2842.03,599.81,598.06,54.17,0000 0000 0000 0000 000000
2015-09-15 03:10:36,0.00,2.32,0.00,23.11,28.10,30.79,14.60,51.17,1020.91,2034.00,2508.00,2677.00,2842.03,599.58,597.92,54.22,0000 0000 0000 0000 000000
2015-09-15 03:15:38,0.00,2.32,0.00,23.08,28.10,30.76,14.70,51.26,1020.94,2034.00,2508.00,2677.00,2842.01,600.42,598.82,54.27,0000 0000 0000 0000 000000
2015-09-15 03:20:39,0.00,2.32,0.00,23.21,28.10,30.80,14.68,51.15,1020.97,2034.00,2508.00,2676.99,2842.02,599.99,598.26,54.32,0000 0000 0000 0000 000000
2015-09-15 03:25:40,0.00,2.32,0.00,23.12,28.10,30.80,14.67,51.22,1020.99,2034.00,2508.00,2676.99,2842.01,600.03,598.10,54.37,0000 0000 0000 0000 000000
2015-09-15 03:30:42,0.00,2.32,0.00,23.16,28.10,30.75,14.57,51.15,1021.01,2034.00,2507.99,2676.99,2842.00,599.93,598.33,54.42,0000 0000 0000 0000 000000
2015-09-15 03:35:43,0.00,2.32,0.00,23.22,28.10,30.78,14.65,51.20,1021.01,2034.00,2507.98,2676.99,2842.00,600.21,598.32,54.47,0000 0000 0000 0000 000000
2015-09-15 03:40:45,0.01,2.32,0.00,23.05,28.10,30.78,14.67,51.24,1021.01,2034.00,2507.66,2676.99,2842.00,599.88,598.42,54.52,0000 0000 0000 0000 000000
2015-09-15 03:45:46,0.02,2.32,0.00,23.11,28.10,30.73,14.67,51.11,1021.01,2034.00,2507.03,2676.85,2841.79,599.97,598.33,54.57,0000 0000 0000 0000 000000
2015-09-15 03:50:48,0.04,2.33,0.00,23.18,28.10,30.79,14.63,51.07,1021.02,2034.00,2506.73,2676.23,2841.11,599.85,598.04,54.62,0000 0000 0000 0000 000000
2015-09-15 03:55:49,0.01,2.33,0.00,23.07,28.09,30.76,14.66,51.18,1021.09,2034.00,2506.08,2676.03,2841.01,600.04,598.51,54.67,0000 0000 0000 0000 000000
2015-09-15 04:00:50,0.01,2.33,0.00,23.18,28.09,30.74,14.59,50.94,1021.25,2034.00,2505.75,2676.00,2840.88,599.88,598.25,54.72,0000 0000 0000 0000 000000
2015-09-15 04:05:52,0.03,2.33,0.00,23.18,28.09,30.79,14.66,51.18,1021.42,2034.00,2505.05,2675.98,2840.16,600.12,598.61,54.77,0000 0000 0000 0000 000000
2015-09-15 04:10:53,0.00,2.33,0.00,23.06,28.08,30.76,14.72,51.08,1021.47,2034.00,2505.00,2675.96,2840.03,600.22,598.98,54.82,0000 0000 0000 0000 000000
2015-09-15 04:15:54,0.01,2.33,0.00,23.18,28.08,30.76,14.68,51.21,1021.50,2034.00,2504.89,2675.78,2840.00,599.81,598.34,54.87,0000 0000 0000 0000 000000
2015-09-15 04:20:56,0.01,2.33,0.00,23.13,28.08,30.79,14.69,51.23,1021.50,2034.00,2504.46,2675.69,2840.00,599.98,598.60,54.92,0000 0000 0000 0000 000000
2015-09-15 04:25:57,0.01,2.33,0.00,23.07,28.07,30.74,14.71,51.25,1021.50,2034.00,2504.04,2675.57,2839.99,599.82,598.45,54.97,0000 0000 0000 0000 000000
2015-09-15 04:30:59,0.01,2.33,0.00,23.20,28.07,30.76,14.67,51.13,1021.50,2034.00,2504.00,2675.48,2839.98,600.01,598.63,55.03,0000 0000 0000 0000 000000
2015-09-15 04:36:00,0.01,2.33,0.00,23.09,28.07,30.75,14.66,51.04,1021.50,2034.00,2503.98,2675.14,2839.89,600.35,598.95,55.08,0000 0000 0000 0000 000000
2015-09-15 04:41:02,0.02,2.33,0.00,23.16,28.07,30.73,14.66,51.10,1021.51,2034.00,2503.51,2675.07,2839.42,600.10,598.64,55.13,0000 0000 0000 0000 000000
2015-09-15 04:46:03,0.01,2.33,0.00,23.20,28.07,30.77,14.63,51.21,1021.51,2034.00,2503.05,2675.02,2839.08,599.74,598.15,55.18,0000 0000 0000 0000 000000
2015-09-15 04:51:04,0.00,2.33,0.00,23.03,28.07,30.78,14.71,51.17,1021.51,2034.00,2503.00,2675.01,2839.01,600.19,599.03,55.23,0000 0000 0000 0000 000000
2015-09-15 04:56:06,0.00,2.33,0.00,23.08,28.07,30.73,14.64,51.19,1021.56,2034.00,2502.98,2675.01,2839.00,599.91,598.74,55.28,0000 0000 0000 0000 000000
2015-09-15 05:01:07,0.00,2.34,0.00,23.17,28.07,30.75,14.70,51.11,1021.70,2034.00,2502.69,2675.00,2839.00,600.29,598.98,55.33,0000 0000 0000 0000 000000
2015-09-15 05:06:08,0.01,2.34,0.00,23.07,28.07,30.76,14.62,51.39,1021.78,2034.00,2502.09,2675.00,2838.97,599.69,598.64,55.38,0000 0000 0000 0000 000000
2015-09-15 05:11:09,0.00,2.34,0.00,23.17,28.07,30.75,14.59,51.21,1021.93,2034.00,2502.00,2675.00,2838.88,599.31,598.24,55.43,0000 0000 0000 0000 000000
2015-09-15 05:16:10,0.00,2.34,0.00,23.26,28.08,30.79,14.66,51.23,1021.96,2034.00,2502.00,2675.00,2838.54,599.88,598.50,55.48,0000 0000 0000 0000 000000
2015-09-15 05:21:11,0.00,2.34,0.00,23.16,28.09,30.77,14.73,51.27,1021.98,2034.00,2501.98,2675.00,2838.32,600.55,599.40,55.53,0000 0000 0000 0000 000000
2015-09-15 05:26:13,0.01,2.34,0.00,23.25,28.10,30.76,14.64,51.27,1021.99,2034.00,2501.61,2674.99,2838.08,600.05,598.77,55.58,0000 0000 0000 0000 000000
2015-09-15 05:31:14,0.01,2.34,0.00,23.20,28.10,30.77,14.66,51.14,1021.99,2034.00,2501.11,2674.98,2838.00,600.06,598.86,55.63,0000 0000 0000 0000 000000
2015-09-15 05:36:15,0.00,2.34,0.00,23.13,28.10,30.73,14.64,51.26,1022.00,2033.99,2501.01,2674.97,2838.00,599.76,598.66,55.68,0000 0000 0000 0000 000000
2015-09-15 05:41:16,0.00,2.34,0.00,23.24,28.10,30.75,14.68,51.27,1022.01,2033.99,2500.99,2674.96,2837.99,600.42,599.13,55.73,0000 0000 0000 0000 000000
2015-09-15 05:46:18,0.00,2.34,0.00,23.18,28.10,30.75,14.70,51.13,1022.02,2033.99,2500.98,2674.93,2837.98,600.41,599.24,55.78,0000 0000 0000 0000 000000
2015-09-15 05:51:19,0.00,2.34,0.00,23.25,28.10,30.76,14.64,51.03,1022.12,2033.99,2500.87,2674.96,2837.98,600.07,598.95,55.83,0000 0000 0000 0000 000000
2015-09-15 05:56:20,0.01,2.34,0.00,23.17,28.10,30.78,14.64,51.12,1022.33,2033.99,2500.25,2674.95,2837.88,600.11,599.24,55.88,0000 0000 0000 0000 000000
2015-09-15 06:01:21,0.01,2.34,0.00,23.19,28.10,30.74,14.59,51.02,1022.37,2033.99,2500.05,2674.89,2837.57,600.31,599.33,55.93,0000 0000 0000 0000 000000
2015-09-15 06:06:22,0.02,2.34,0.00,23.26,28.10,30.78,14.73,51.10,1022.41,2033.98,2499.99,2674.56,2837.09,600.26,599.18,55.98,0000 0000 0000 0000 000000
2015-09-15 06:11:24,0.00,2.34,0.00,23.22,28.10,30.74,14.64,51.06,1022.46,2033.98,2499.96,2674.38,2837.03,600.27,599.24,56.04,0000 0000 0000 0000 000000
2015-09-15 06:16:25,0.02,2.34,0.00,23.28,28.10,30.76,14.61,51.07,1022.48,2033.98,2499.47,2674.16,2837.00,599.64,598.49,56.09,0000 0000 0000 0000 000000
2015-09-15 06:21:26,0.00,2.34,0.00,23.18,28.10,30.74,14.71,51.13,1022.48,2033.98,2499.02,2674.04,2836.99,600.09,599.19,56.14,0000 0000 0000 0000 000000
2015-09-15 06:26:28,-0.00,2.34,0.00,23.24,28.10,30.71,14.65,51.12,1022.48,2033.97,2498.99,2674.02,2836.97,599.86,598.86,56.19,0000 0000 0000 0000 000000
2015-09-15 06:31:29,0.02,2.34,0.00,23.24,28.10,30.76,14.67,51.19,1022.48,2033.96,2498.64,2674.00,2836.56,599.77,598.86,56.24,0000 0000 0000 0000 000000
2015-09-15 06:36:30,0.01,2.34,0.00,23.04,28.10,30.81,14.69,51.42,1022.48,2033.98,2498.09,2674.00,2836.23,599.98,599.26,56.29,0000 0000 0000 0000 000000
2015-09-15 06:41:31,0.00,2.35,0.00,23.00,28.09,30.77,14.65,51.19,1022.48,2033.98,2497.99,2674.00,2836.04,599.98,599.46,56.34,0000 0000 0000 0000 000000
2015-09-15 06:46:32,0.00,2.35,0.00,23.15,28.09,30.78,14.70,51.24,1022.49,2033.98,2497.98,2674.00,2836.00,600.11,599.21,56.39,0000 0000 0000 0000 000000
2015-09-15 06:51:33,0.02,2.35,0.00,23.20,28.10,30.84,14.71,51.08,1022.50,2033.99,2497.51,2673.99,2836.00,599.96,599.00,56.44,0000 0000 0000 0000 000000
2015-09-15 06:56:35,0.00,2.35,0.00,23.11,28.10,30.79,14.57,51.02,1022.52,2033.99,2497.02,2673.95,2835.99,599.81,599.13,56.49,0000 0000 0000 0000 000000
2015-09-15 07:01:36,0.01,2.35,0.00,23.21,28.10,30.80,14.76,51.13,1022.63,2033.99,2496.99,2673.77,2835.77,599.91,599.05,56.54,0000 0000 0000 0000 000000
2015-09-15 07:06:38,0.04,2.35,0.00,23.12,28.10,30.79,14.72,51.05,1022.78,2033.99,2496.57,2673.23,2835.14,600.11,599.58,56.59,0000 0000 0000 0000 000000
2015-09-15 07:11:39,0.01,2.35,0.00,23.05,28.10,30.74,14.80,51.16,1022.89,2033.99,2496.03,2673.03,2835.02,600.47,600.00,56.64,0000 0000 0000 0000 000000
2015-09-15 07:16:40,0.00,2.35,0.00,23.20,28.10,30.76,14.69,51.08,1022.93,2033.99,2495.99,2673.00,2835.00,599.94,599.11,56.69,0000 0000 0000 0000 000000
2015-09-15 07:21:41,0.00,2.35,0.00,23.12,28.10,30.77,14.65,51.12,1022.95,2033.98,2495.94,2673.00,2834.98,600.14,599.68,56.74,0000 0000 0000 0000 000000
2015-09-15 07:26:42,0.01,2.35,0.00,23.12,28.09,30.74,14.66,51.12,1022.96,2033.98,2495.63,2673.00,2834.91,600.13,599.51,56.79,0000 0000 0000 0000 000000
2015-09-15 07:31:44,0.02,2.35,0.00,23.21,28.10,30.78,14.73,51.22,1022.96,2033.98,2495.07,2672.99,2834.65,599.76,599.14,56.84,0000 0000 0000 0000 000000
2015-09-15 07:36:45,0.01,2.35,0.00,23.18,28.09,30.77,14.67,51.08,1022.96,2033.99,2495.01,2672.98,2834.16,600.17,599.51,56.90,0000 0000 0000 0000 000000
2015-09-15 07:41:46,0.00,2.35,0.00,23.22,28.10,30.77,14.71,51.21,1022.96,2033.98,2495.00,2672.97,2834.05,600.11,599.49,56.95,0000 0000 0000 0000 000000
2015-09-15 07:46:48,0.00,2.35,0.00,23.17,28.09,30.74,14.62,51.24,1022.97,2033.99,2494.96,2672.94,2834.02,599.93,599.42,57.00,0000 0000 0000 0000 000000
2015-09-15 07:51:49,0.04,2.35,0.00,23.28,28.09,30.75,14.54,51.17,1022.97,2033.99,2494.37,2672.37,2833.98,599.59,598.83,57.05,0000 0000 0000 0000 000000
2015-09-15 07:56:50,0.00,2.36,0.00,23.27,28.09,30.77,14.61,51.08,1022.99,2033.98,2494.05,2672.10,2833.97,600.07,599.29,57.10,0000 0000 0000 0000 000000
2015-09-15 08:01:51,0.00,2.36,0.00,23.15,28.07,30.73,14.60,50.97,1022.98,2033.98,2494.00,2672.07,2833.95,599.82,599.28,57.15,0000 0000 0000 0000 000000
2015-09-15 08:06:53,0.00,2.36,0.00,23.23,28.07,30.76,14.67,51.12,1023.00,2033.98,2494.00,2672.02,2833.79,599.91,599.27,57.20,0000 0000 0000 0000 000000
2015-09-15 08:11:54,0.00,2.36,0.00,23.07,28.07,30.75,14.67,51.36,1023.05,2033.99,2493.96,2672.02,2833.66,599.86,599.52,57.25,0000 0000 0000 0000 000000
2015-09-15 08:16:55,0.01,2.36,0.00,23.02,28.07,30.72,14.68,51.15,1023.18,2033.99,2493.67,2672.02,2833.29,600.38,600.13,57.30,0000 0000 0000 0000 000000
2015-09-15 08:21:56,0.01,2.36,0.00,23.16,28.05,30.73,14.70,51.13,1023.37,2033.99,2493.12,2672.01,2833.08,599.99,599.70,57.35,0000 0000 0000 0000 000000
2015-09-15 08:26:57,0.00,2.36,0.00,23.12,28.05,30.75,14.66,51.13,1023.43,2033.99,2493.01,2672.00,2833.02,599.89,599.67,57.40,0000 0000 0000 0000 000000
2015-09-15 08:31:58,0.00,2.36,0.00,23.12,28.05,30.73,14.62,51.08,1023.44,2033.99,2493.00,2672.00,2833.00,599.76,599.54,57.45,0000 0000 0000 0000 000000
2015-09-15 08:36:59,0.00,2.36,0.00,23.17,28.05,30.74,14.69,51.13,1023.45,2033.99,2493.00,2672.00,2833.00,599.87,599.72,57.50,0000 0000 0000 0000 000000
2015-09-15 08:42:01,0.00,2.36,0.00,23.03,28.05,30.71,14.71,51.14,1023.45,2034.00,2492.98,2672.00,2833.00,600.04,600.08,57.55,0000 0000 0000 0000 000000
2015-09-15 08:47:02,0.00,2.36,0.00,23.13,28.05,30.69,14.69,51.12,1023.45,2034.00,2492.97,2672.00,2833.00,599.83,599.60,57.60,0000 0000 0000 0000 000000
2015-09-15 08:52:03,0.01,2.36,0.00,23.10,28.05,30.74,14.69,50.89,1023.45,2034.00,2492.72,2672.00,2833.00,600.05,599.85,57.65,0000 0000 0000 0000 000000
2015-09-15 08:57:04,0.01,2.36,0.00,23.00,28.05,30.70,14.67,51.12,1023.46,2034.00,2492.08,2672.00,2832.99,600.15,600.27,57.70,0000 0000 0000 0000 000000
2015-09-15 09:02:05,0.00,2.36,0.00,23.13,28.05,30.73,14.72,51.16,1023.49,2034.00,2492.00,2672.00,2832.97,600.05,599.79,57.75,0000 0000 0000 0000 000000
2015-09-15 09:07:06,0.00,2.36,0.00,23.04,28.03,30.73,14.64,51.06,1023.68,2034.00,2492.00,2671.99,2832.89,600.02,600.12,57.80,0000 0000 0000 0000 000000
2015-09-15 09:12:07,0.00,2.36,0.00,23.01,28.02,30.68,14.70,51.06,1023.82,2034.00,2492.00,2671.99,2832.84,599.87,600.07,57.85,0000 0000 0000 0000 000000
2015-09-15 09:17:09,0.00,2.36,0.00,23.11,28.02,30.72,14.72,51.06,1023.92,2034.00,2491.99,2671.98,2832.82,600.12,600.28,57.91,0000 0000 0000 0000 000000
2015-09-15 09:22:11,0.00,2.36,0.00,23.00,28.02,30.70,14.71,51.13,1023.94,2034.00,2491.96,2671.99,2832.63,600.05,600.38,57.96,0000 0000 0000 0000 000000
2015-09-15 09:27:12,0.00,2.36,0.00,23.10,28.02,30.70,14.74,51.05,1023.94,2034.00,2491.89,2671.99,2832.36,600.18,600.23,58.01,0000 0000 0000 0000 000000
2015-09-15 09:32:14,0.01,2.36,0.00,23.06,28.02,30.72,14.82,51.11,1023.94,2034.02,2491.69,2671.99,2832.17,600.33,600.53,58.06,0000 0000 0000 0000 000000
2015-09-15 09:37:15,0.01,2.36,0.00,22.97,28.02,30.70,14.66,51.15,1023.94,2034.00,2491.09,2671.95,2832.03,599.98,600.50,58.11,0000 0000 0000 0000 000000
2015-09-15 09:42:16,0.00,2.36,0.00,23.12,28.02,30.70,14.64,51.11,1023.95,2034.00,2491.00,2671.90,2832.00,599.90,600.02,58.16,0000 0000 0000 0000 000000
2015-09-15 09:47:18,0.00,2.36,0.00,23.02,28.02,30.73,14.67,51.11,1023.95,2034.00,2491.00,2671.88,2832.00,600.02,600.27,58.21,0000 0000 0000 0000 000000
2015-09-15 09:52:19,0.00,2.36,0.00,22.99,28.01,30.68,14.65,51.06,1023.97,2034.00,2491.00,2671.84,2832.00,600.07,600.32,58.26,0000 0000 0000 0000 000000
2015-09-15 09:57:20,0.00,2.36,0.00,23.10,28.01,30.71,14.67,51.08,1024.00,2034.00,2491.00,2671.89,2832.00,599.84,600.02,58.31,0000 0000 0000 0000 000000
2015-09-15 10:02:21,0.00,2.36,0.00,22.95,28.00,30.73,14.65,51.12,1024.11,2034.00,2490.97,2671.90,2832.00,599.78,600.27,58.36,0000 0000 0000 0000 000000
2015-09-15 10:07:22,-0.00,2.36,0.00,22.97,28.00,30.68,14.68,51.17,1024.18,2034.00,2490.96,2671.87,2832.00,599.91,600.44,58.41,0000 0000 0000 0000 000000
2015-09-15 10:12:24,0.00,2.36,0.00,23.08,28.00,30.71,14.66,51.05,1024.37,2034.01,2490.95,2671.87,2832.00,599.79,600.18,58.46,0000 0000 0000 0000 000000
2015-09-15 10:17:25,0.01,2.36,0.00,22.98,28.00,30.69,14.84,51.27,1024.42,2034.00,2490.54,2671.80,2831.99,600.14,600.84,58.51,0000 0000 0000 0000 000000
2015-09-15 10:22:26,0.01,2.36,0.00,23.09,28.00,30.70,14.72,51.23,1024.43,2034.00,2490.08,2671.57,2831.97,600.05,600.48,58.56,0000 0000 0000 0000 000000
2015-09-15 10:27:27,0.00,2.36,0.00,23.04,28.00,30.73,14.63,51.19,1024.43,2034.00,2490.03,2671.54,2831.97,599.90,600.32,58.61,0000 0000 0000 0000 000000
2015-09-15 10:32:28,0.00,2.36,0.00,22.92,28.00,30.68,14.80,51.16,1024.43,2034.00,2490.00,2671.36,2831.90,600.36,601.29,58.66,0000 0000 0000 0000 000000
2015-09-15 10:37:30,-0.00,2.36,0.00,23.04,27.99,30.66,14.75,51.27,1024.43,2034.00,2490.00,2671.43,2831.91,600.18,600.74,58.71,0000 0000 0000 0000 000000
2015-09-15 10:42:31,0.01,2.36,0.00,22.93,27.98,30.73,14.72,51.09,1024.44,2034.01,2489.99,2671.31,2831.79,600.27,601.04,58.77,0000 0000 0000 0000 000000
2015-09-15 10:47:33,-0.00,2.36,0.00,22.70,27.97,30.78,14.68,51.39,1024.47,2034.03,2489.96,2671.41,2831.80,599.63,600.94,58.82,0000 0000 0000 0000 000000
2015-09-15 10:52:34,0.02,2.36,0.00,22.68,27.97,30.71,14.77,51.34,1024.55,2034.01,2489.79,2671.28,2831.45,599.98,601.32,58.87,0000 0000 0000 0000 000000
2015-09-15 10:57:35,0.01,2.37,0.00,22.90,27.97,30.70,14.71,51.20,1024.75,2034.00,2489.63,2671.11,2831.14,600.16,601.29,58.92,0000 0000 0000 0000 000000
2015-09-15 11:02:37,-0.00,2.37,0.00,22.94,27.97,30.76,14.73,51.23,1024.86,2034.02,2489.44,2671.20,2831.13,600.24,601.23,58.97,0000 0000 0000 0000 000000
2015-09-15 11:07:38,0.01,2.37,0.00,22.76,27.96,30.73,14.71,51.34,1024.90,2034.01,2489.14,2671.14,2831.08,600.05,601.40,59.02,0000 0000 0000 0000 000000
2015-09-15 11:12:40,-0.00,2.37,0.00,22.87,27.96,30.66,14.73,51.23,1024.92,2034.01,2489.04,2671.11,2831.04,600.41,601.58,59.07,0000 0000 0000 0000 000000
2015-09-15 11:17:41,0.00,2.37,0.00,22.96,27.96,30.71,14.74,51.13,1024.92,2034.02,2489.04,2671.15,2831.05,600.42,601.31,59.12,0000 0000 0000 0000 000000
2015-09-15 11:22:42,-0.00,2.37,0.00,22.75,27.95,30.76,14.72,51.22,1024.92,2034.02,2489.00,2671.10,2831.02,600.04,601.43,59.17,0000 0000 0000 0000 000000
2015-09-15 11:27:43,-0.00,2.37,0.00,22.65,27.95,30.74,14.67,51.48,1024.92,2034.02,2489.00,2671.16,2831.01,600.01,601.62,59.22,0000 0000 0000 0000 000000
2015-09-15 11:32:44,-0.00,2.37,0.00,22.83,27.95,30.69,14.65,51.25,1024.92,2034.01,2489.00,2671.15,2831.02,599.44,600.52,59.27,0000 0000 0000 0000 000000
2015-09-15 11:37:45,0.01,2.37,0.00,22.93,27.95,30.74,14.71,51.55,1024.92,2034.02,2489.00,2671.06,2831.01,599.75,600.69,59.32,0000 0000 0000 0000 000000
2015-09-15 11:42:47,-0.00,2.37,0.00,22.77,27.95,30.77,14.70,51.55,1024.93,2034.00,2488.99,2671.02,2831.00,599.87,601.25,59.37,0000 0000 0000 0000 000000
2015-09-15 11:47:48,0.00,2.37,0.00,22.60,27.95,30.76,14.74,51.58,1024.93,2034.01,2488.97,2671.02,2831.00,599.62,601.29,59.42,0000 0000 0000 0000 000000
2015-09-15 11:52:49,0.00,2.37,0.00,22.75,27.95,30.69,14.71,51.48,1024.94,2034.03,2488.98,2671.06,2831.01,599.70,601.08,59.47,0000 0000 0000 0000 000000
2015-09-15 11:57:50,-0.00,2.37,0.00,22.91,27.95,30.76,14.65,51.56,1024.95,2034.00,2488.98,2671.05,2831.00,599.66,600.74,59.52,0000 0000 0000 0000 000000
2015-09-15 12:02:51,0.00,2.37,0.00,22.79,27.95,30.77,14.69,51.55,1024.98,2034.01,2488.94,2671.02,2831.00,599.96,601.30,59.57,0000 0000 0000 0000 000000
2015-09-15 12:07:53,-0.00,2.37,0.00,22.74,27.95,30.70,14.77,51.58,1025.04,2034.02,2488.93,2671.06,2831.00,600.03,601.56,59.62,0000 0000 0000 0000 000000
2015-09-15 12:12:54,0.01,2.37,0.00,22.88,27.95,30.69,14.76,51.44,1025.04,2034.03,2488.85,2671.06,2831.00,600.22,601.49,59.68,0000 0000 0000 0000 000000
2015-09-15 12:17:55,0.01,2.37,0.00,22.71,27.95,30.70,14.67,51.66,1025.08,2034.01,2488.36,2671.03,2830.99,599.73,601.44,59.73,0000 0000 0000 0000 000000
2015-09-15 12:22:57,0.00,2.37,0.00,22.73,27.95,30.67,14.74,51.89,1025.05,2034.01,2488.20,2671.01,2830.99,599.92,601.44,59.78,0000 0000 0000 0000 000000
2015-09-15 12:27:58,0.00,2.37,0.00,22.89,27.95,30.67,14.72,51.60,1025.08,2034.02,2488.18,2671.04,2830.99,600.01,601.14,59.83,0000 0000 0000 0000 000000
2015-09-15 12:32:59,0.00,2.37,0.00,22.73,27.95,30.73,14.75,51.67,1025.13,2034.03,2488.13,2671.04,2830.99,599.72,601.27,59.88,0000 0000 0000 0000 000000
2015-09-15 12:38:01,0.00,2.37,0.00,22.55,27.95,30.79,14.72,52.00,1025.24,2034.00,2488.03,2671.01,2830.99,599.84,601.72,59.93,0000 0000 0000 0000 000000
2015-09-15 12:43:02,0.00,2.37,0.00,22.55,27.93,30.71,14.70,51.99,1025.34,2034.00,2488.00,2671.01,2830.97,599.70,601.77,59.98,0000 0000 0000 0000 000000
2015-09-15 12:48:03,0.00,2.37,0.00,22.76,27.92,30.72,14.78,52.02,1025.39,2034.01,2488.00,2671.02,2830.97,600.40,602.06,60.03,0000 0000 0000 0000 000000
2015-09-15 12:53:05,0.00,2.37,0.00,22.78,27.92,30.74,14.76,51.74,1025.39,2034.01,2488.00,2671.02,2830.97,600.24,601.92,60.08,0000 0000 0000 0000 000000
2015-09-15 12:58:06,0.00,2.37,0.00,22.60,27.92,30.69,13.40,47.07,1025.39,2034.01,2487.99,2671.01,2830.91,549.16,550.95,60.13,0000 0000 0000 0000 000009